Soldotna, AK

5:44 AM AKST on December 12, 2017 (GMT -0900)
Soldotna

Weather History for PASX - October, 2011

Change the Weather History Date:

Wednesday, October 19, 2011

  Actual Average Record
Temperature  
Mean Temperature 27 °F -  
Max Temperature 37 °F 40 °F 58 °F (1957)
Min Temperature 17 °F 26 °F -5 °F (1996)
Degree Days  
Heating Degree Days 38    
Moisture  
Dew Point 23 °F    
Average Humidity 87    
Maximum Humidity 100    
Minimum Humidity 65    
Precipitation  
Precipitation 0.00 in - - ()
Sea Level Pressure  
Sea Level Pressure 29.71 in    
Wind  
Wind Speed 3 mph (East)    
Max Wind Speed 8 mph    
Max Gust Speed -    
Visibility 9 miles    
Events      
Averages and records for this station are not official NWS values.
T = Trace of Precipitation, MM = Missing Value Source: NWS Daily Summary

Daily Weather History Graph

Daily Weather History Graph

Search for Another Location

Airport or City:

Trip Planner

Search our weather history database for the weather conditions in past years. The results will help you decide how hot, cold, wet, or windy it might be!

Date:

Astronomy

Oct. 19, 2011 Rise Set
Actual Time 8:54 AM AKDT 6:42 PM AKDT
Civil Twilight 8:11 AM AKDT 7:25 PM AKDT
Nautical Twilight 7:22 AM AKDT 8:14 PM AKDT
Astronomical Twilight 6:33 AM AKDT 9:03 PM AKDT
Moon No Moon Rise 4:14 PM AKDT (10/19)
Length of Visible Light 11h 14m
Length of Day
9h 47m
Waning Gibbous, 53% of the Moon is Illuminated
Oct 19
Waning Gibbous
Oct 19
Last Quarter
Oct 26
New
Nov 2
First Quarter
Nov 10
Full

Hourly Weather History & Observations

Time (AKDT) Temp. Windchill Dew Point Humidity Pressure Visibility Wind Dir Wind Speed Gust Speed Precip Events Conditions
12:16 AM 24.8 °F - 19.4 °F 80% 29.69 in - Calm Calm - N/A   Clear
12:36 AM 24.8 °F - 21.2 °F 86% 29.70 in 10.0 mi Calm Calm - N/A   Clear
12:56 AM 23.0 °F - 19.4 °F 86% 29.70 in 10.0 mi Calm Calm - N/A   Clear
1:16 AM 21.2 °F - 17.6 °F 86% 29.69 in 10.0 mi Calm Calm - N/A   Clear
1:36 AM 21.2 °F 16.4 °F 19.4 °F 93% 29.69 in 10.0 mi SE 3.5 mph - N/A   Clear
1:56 AM 23.0 °F - 21.2 °F 93% 29.70 in 10.0 mi Calm Calm - N/A   Clear
2:16 AM 21.2 °F 16.4 °F 19.4 °F 93% 29.69 in 10.0 mi ENE 3.5 mph - N/A   Clear
2:36 AM 19.4 °F 12.8 °F 17.6 °F 93% 29.69 in 10.0 mi East 4.6 mph - N/A   Clear
2:56 AM 23.0 °F 17.0 °F 21.2 °F 93% 29.70 in 10.0 mi East 4.6 mph - N/A   Clear
3:16 AM 21.2 °F 16.4 °F 19.4 °F 93% 29.69 in 10.0 mi East 3.5 mph - N/A   Clear
3:36 AM 23.0 °F 17.0 °F 21.2 °F 93% 29.70 in 10.0 mi East 4.6 mph - N/A   Clear
3:56 AM 21.2 °F 16.4 °F 19.4 °F 93% 29.69 in 10.0 mi East 3.5 mph - N/A   Clear
4:16 AM 21.2 °F - 19.4 °F 93% 29.70 in 10.0 mi Calm Calm - N/A   Clear
4:36 AM 21.2 °F - 19.4 °F 93% 29.70 in 10.0 mi Calm Calm - N/A   Clear
4:56 AM 21.2 °F - 19.4 °F 93% 29.70 in 10.0 mi Calm Calm - N/A   Clear
5:16 AM 19.4 °F 14.3 °F 15.8 °F 86% 29.70 in 10.0 mi East 3.5 mph - N/A   Clear
5:36 AM 21.2 °F 16.4 °F 19.4 °F 93% 29.70 in 10.0 mi ENE 3.5 mph - N/A   Clear
6:16 AM 19.4 °F - 17.6 °F 93% 29.70 in 10.0 mi Calm Calm - N/A   Clear
6:36 AM 17.6 °F - 15.8 °F 93% 29.70 in 10.0 mi Calm Calm - N/A   Clear
6:56 AM 19.4 °F 14.3 °F 19.4 °F 100% 29.70 in 10.0 mi East 3.5 mph - N/A   Clear
7:16 AM 19.4 °F 14.3 °F 17.6 °F 93% 29.70 in 10.0 mi ENE 3.5 mph - N/A   Clear
7:36 AM 17.6 °F - 15.8 °F 93% 29.71 in 10.0 mi Calm Calm - N/A   Clear
7:56 AM 17.6 °F 12.3 °F 15.8 °F 93% 29.71 in 10.0 mi East 3.5 mph - N/A   Clear
8:16 AM 19.4 °F 14.3 °F 19.4 °F 100% 29.72 in 10.0 mi East 3.5 mph - N/A   Clear
8:36 AM 17.6 °F 10.7 °F 15.8 °F 93% 29.71 in 10.0 mi East 4.6 mph - N/A   Clear
9:16 AM 17.6 °F 12.3 °F 12.2 °F 79% 29.71 in 10.0 mi East 3.5 mph - N/A   Clear
9:36 AM 17.6 °F 10.7 °F 15.8 °F 93% 29.71 in 9.0 mi East 4.6 mph - N/A   Clear
9:56 AM 19.4 °F 12.8 °F 17.6 °F 93% 29.71 in 9.0 mi East 4.6 mph - N/A   Clear
10:16 AM 21.2 °F 16.4 °F 17.6 °F 86% 29.72 in 9.0 mi East 3.5 mph - N/A   Clear
10:36 AM 21.2 °F 14.9 °F 19.4 °F 93% 29.72 in 5.0 mi East 4.6 mph - N/A   Mostly Cloudy
10:56 AM 24.8 °F 19.1 °F 24.8 °F 100% 29.72 in 6.0 mi East 4.6 mph - N/A   Overcast
11:16 AM 26.6 °F 21.2 °F 24.8 °F 93% 29.73 in 2.0 mi East 4.6 mph - N/A   Overcast
11:36 AM 26.6 °F 20.0 °F 24.8 °F 93% 29.73 in 3.0 mi East 5.8 mph - N/A   Overcast
11:56 AM 28.4 °F 23.3 °F 26.6 °F 93% 29.73 in 2.5 mi ESE 4.6 mph - N/A   Overcast
12:16 PM 28.4 °F 23.3 °F 26.6 °F 93% 29.74 in 6.0 mi ESE 4.6 mph - N/A   Overcast
12:36 PM 28.4 °F 22.2 °F 28.4 °F 100% 29.73 in 8.0 mi East 5.8 mph - N/A   Overcast
12:56 PM 30.2 °F 24.3 °F 28.4 °F 93% 29.74 in 9.0 mi ESE 5.8 mph - N/A   Overcast
1:16 PM 30.2 °F 24.3 °F 28.4 °F 93% 29.74 in 10.0 mi ESE 5.8 mph - N/A   Overcast
1:36 PM 30.2 °F 24.3 °F 28.4 °F 93% 29.74 in 10.0 mi SE 5.8 mph - N/A   Mostly Cloudy
1:56 PM 32.0 °F 25.6 °F 28.4 °F 87% 29.73 in 10.0 mi SE 6.9 mph - N/A   Scattered Clouds
2:16 PM 33.8 °F 28.6 °F 28.4 °F 81% 29.73 in 10.0 mi ESE 5.8 mph - N/A   Partly Cloudy
2:36 PM 33.8 °F 28.6 °F 30.2 °F 87% 29.73 in 10.0 mi ESE 5.8 mph - N/A   Clear
2:56 PM 33.8 °F 27.7 °F 30.2 °F 87% 29.72 in 10.0 mi ESE 6.9 mph - N/A   Clear
3:16 PM 35.6 °F 30.7 °F 30.2 °F 81% 29.72 in 10.0 mi ESE 5.8 mph - N/A   Clear
3:36 PM 35.6 °F 30.7 °F 28.4 °F 75% 29.72 in 10.0 mi ENE 5.8 mph - N/A   Clear
3:56 PM 35.6 °F 30.7 °F 28.4 °F 75% 29.71 in 10.0 mi ENE 5.8 mph - N/A   Clear
4:16 PM 37.4 °F 31.4 °F 28.4 °F 70% 29.71 in 10.0 mi NE 8.1 mph - N/A   Clear
4:36 PM 37.4 °F 32.8 °F 26.6 °F 65% 29.71 in 10.0 mi ENE 5.8 mph - N/A   Clear
4:56 PM 37.4 °F 32.8 °F 28.4 °F 70% 29.70 in 10.0 mi NE 5.8 mph - N/A   Clear
5:16 PM 37.4 °F 32.8 °F 28.4 °F 70% 29.70 in 10.0 mi NE 5.8 mph - N/A   Clear
5:36 PM 37.4 °F 32.8 °F 26.6 °F 65% 29.70 in 10.0 mi NE 5.8 mph - N/A   Clear
5:56 PM 35.6 °F 31.7 °F 28.4 °F 75% 29.70 in 10.0 mi NE 4.6 mph - N/A   Clear
6:16 PM 35.6 °F - 26.6 °F 70% 29.70 in 10.0 mi Calm Calm - N/A   Clear
6:36 PM 33.8 °F - 24.8 °F 70% 29.70 in 10.0 mi Calm Calm - N/A   Clear
6:56 PM 30.2 °F - 24.8 °F 80% 29.70 in 10.0 mi Calm Calm - N/A   Clear
7:16 PM 28.4 °F - 24.8 °F 86% 29.71 in - Calm Calm - N/A   Unknown
7:36 PM 28.4 °F - 24.8 °F 86% 29.71 in 10.0 mi Calm Calm - N/A   Scattered Clouds
7:56 PM 28.4 °F - 24.8 °F 86% 29.71 in - Calm Calm - N/A   Unknown
8:16 PM 28.4 °F - 24.8 °F 86% 29.71 in - Calm Calm - N/A   Mostly Cloudy
8:36 PM 26.6 °F - 21.2 °F 80% 29.71 in - Calm Calm - N/A   Mostly Cloudy
8:56 PM 26.6 °F - 24.8 °F 93% 29.71 in - Calm Calm - N/A   Unknown
9:16 PM 26.6 °F 22.6 °F 24.8 °F 93% 29.71 in - North 3.5 mph - N/A   Unknown
9:36 PM 26.6 °F - 24.8 °F 93% 29.71 in 10.0 mi Calm Calm - N/A   Clear
9:56 PM 28.4 °F - 26.6 °F 93% 29.71 in 10.0 mi Calm Calm - N/A   Clear
10:16 PM 26.6 °F - 23.0 °F 86% 29.71 in 10.0 mi Calm Calm - N/A   Scattered Clouds
10:36 PM 24.8 °F - 21.2 °F 86% 29.71 in 10.0 mi Calm Calm - N/A   Overcast
10:56 PM 24.8 °F - 21.2 °F 86% 29.71 in 10.0 mi Calm Calm - N/A   Overcast
11:16 PM 26.6 °F 22.6 °F 26.6 °F 100% 29.71 in 10.0 mi ENE 3.5 mph - N/A   Overcast
11:36 PM 26.6 °F - 23.0 °F 86% 29.71 in 10.0 mi Calm Calm - N/A   Overcast
11:56 PM 26.6 °F - 21.2 °F 80% 29.70 in - Calm Calm - N/A   Mostly Cloudy